Time,TemperatureF,DewpointF,PressureIn,WindDirection,WindDirectionDegrees,WindSpeedMPH,WindSpeedGustMPH,Humidity,HourlyPrecipIn,Conditions,Clouds,dailyrainin,SoftwareType,DateUTC
2013-01-07 00:00:00,33.4,27.3,29.91,South,180,4.6,4.6,78,0.00,OVC,,0.00,WeatherDisplay:10.37,2013-01-07 05:00:00,
2013-01-07 00:02:00,33.4,27.2,29.92,WNW,292,3.5,3.5,78,0.00,OVC,,0.00,WeatherDisplay:10.37,2013-01-07 05:02:00,
2013-01-07 00:04:00,33.2,26.8,29.92,SSE,158,9.2,9.2,77,0.00,OVC,,0.00,WeatherDisplay:10.37,2013-01-07 05:04:00,
2013-01-07 00:09:00,32.7,26.0,29.92,NW,315,13.8,13.8,76,0.00,OVC,,0.00,WeatherDisplay:10.37,2013-01-07 05:09:00,
2013-01-07 00:10:00,32.6,25.9,29.92,NW,315,15.0,15.0,76,0.00,OVC,,0.00,WeatherDisplay:10.37,2013-01-07 05:10:00,
2013-01-07 00:15:00,32.6,25.6,29.92,West,270,11.5,11.5,75,0.00,OVC,,0.00,WeatherDisplay:10.37,2013-01-07 05:15:00,
2013-01-07 00:20:00,32.8,25.4,29.92,SE,135,3.5,3.5,74,0.00,OVC,,0.00,WeatherDisplay:10.37,2013-01-07 05:20:00,
2013-01-07 00:25:00,33.1,25.4,29.92,SE,135,4.6,4.6,73,0.00,OVC,,0.00,WeatherDisplay:10.37,2013-01-07 05:25:00,
2013-01-07 00:30:00,33.3,25.6,29.92,SW,225,6.3,6.3,73,0.00,OVC,,0.00,WeatherDisplay:10.37,2013-01-07 05:30:00,
2013-01-07 00:35:00,33.1,25.4,29.92,NNW,338,4.6,4.6,73,0.00,OVC,,0.00,WeatherDisplay:10.37,2013-01-07 05:35:00,
2013-01-07 00:40:00,33.1,25.4,29.92,SSE,158,4.6,4.6,73,0.00,OVC,,0.00,WeatherDisplay:10.37,2013-01-07 05:40:00,
2013-01-07 00:45:00,32.6,24.9,29.92,NE,45,12.7,12.7,73,0.00,OVC,,0.00,WeatherDisplay:10.37,2013-01-07 05:45:00,
2013-01-07 00:50:00,32.6,24.9,29.92,South,180,9.2,9.2,73,0.00,OVC,,0.00,WeatherDisplay:10.37,2013-01-07 05:50:00,
2013-01-07 00:55:00,32.2,24.5,29.92,West,270,9.2,9.2,73,0.00,OVC,,0.00,WeatherDisplay:10.37,2013-01-07 05:55:00,
2013-01-07 01:00:00,32.6,24.9,29.92,WNW,292,13.3,13.3,73,0.00,OVC,,0.00,WeatherDisplay:10.37,2013-01-07 06:00:00,
2013-01-07 01:05:00,32.7,25.0,29.93,NW,315,13.8,13.8,73,0.00,OVC,,0.00,WeatherDisplay:10.37,2013-01-07 06:05:00,
2013-01-07 01:10:00,32.8,25.1,29.93,NNW,338,12.7,12.7,73,0.00,OVC,,0.00,WeatherDisplay:10.37,2013-01-07 06:10:00,
2013-01-07 01:15:00,32.6,24.9,29.93,SSW,202,16.1,16.1,73,0.00,OVC,,0.00,WeatherDisplay:10.37,2013-01-07 06:15:00,
2013-01-07 01:20:00,32.6,24.9,29.93,North,360,13.8,13.8,73,0.00,OVC,,0.00,WeatherDisplay:10.37,2013-01-07 06:20:00,
2013-01-07 01:25:00,32.3,24.6,29.93,SSW,202,8.4,8.4,73,0.00,OVC,,0.00,WeatherDisplay:10.37,2013-01-07 06:25:00,
2013-01-07 01:30:00,32.2,24.5,29.93,SE,135,11.5,11.5,73,0.00,OVC,,0.00,WeatherDisplay:10.37,2013-01-07 06:30:00,
2013-01-07 01:36:00,32.5,24.8,29.93,South,180,9.2,9.2,73,0.00,OVC,,0.00,WeatherDisplay:10.37,2013-01-07 06:36:00,
2013-01-07 01:41:00,32.3,24.6,29.93,West,270,9.2,9.2,73,0.00,OVC,,0.00,WeatherDisplay:10.37,2013-01-07 06:41:00,
2013-01-07 01:46:00,32.5,24.8,29.93,WSW,248,8.1,8.1,73,0.00,OVC,,0.00,WeatherDisplay:10.37,2013-01-07 06:46:00,
2013-01-07 01:51:00,32.8,25.1,29.93,WNW,292,6.9,6.9,73,0.00,OVC,,0.00,WeatherDisplay:10.37,2013-01-07 06:51:00,
2013-01-07 01:56:00,32.5,24.8,29.93,West,270,8.1,8.1,73,0.00,OVC,,0.00,WeatherDisplay:10.37,2013-01-07 06:56:00,
2013-01-07 02:01:00,32.8,25.1,29.93,SSW,202,8.1,8.1,73,0.00,OVC,,0.00,WeatherDisplay:10.37,2013-01-07 07:01:00,
2013-01-07 02:06:00,32.3,24.6,29.93,SSW,202,11.5,11.5,73,0.00,OVC,,0.00,WeatherDisplay:10.37,2013-01-07 07:06:00,
2013-01-07 02:11:00,32.3,24.6,27.28,ENE,68,6.9,6.9,73,0.00,OVC,,0.00,WeatherDisplay:10.37,2013-01-07 07:11:00,
2013-01-07 02:16:00,32.2,24.5,29.93,WNW,292,7.6,7.6,73,0.00,OVC,,0.00,WeatherDisplay:10.37,2013-01-07 07:16:00,
2013-01-07 02:21:00,32.1,24.4,29.93,NNE,22,6.7,6.7,73,0.00,OVC,,0.00,WeatherDisplay:10.37,2013-01-07 07:21:00,
2013-01-07 02:26:00,31.9,24.3,29.93,NE,45,4.6,5.2,73,0.00,OVC,,0.00,WeatherDisplay:10.37,2013-01-07 07:26:00,
2013-01-07 02:31:00,32.1,24.4,29.93,NE,45,11.5,11.5,73,0.00,OVC,,0.00,WeatherDisplay:10.37,2013-01-07 07:31:00,
2013-01-07 02:36:00,31.8,24.2,29.93,West,270,10.4,10.4,73,0.00,OVC,,0.00,WeatherDisplay:10.37,2013-01-07 07:36:00,
2013-01-07 02:41:00,31.9,24.2,29.93,West,270,13.8,13.8,73,0.00,OVC,,0.00,WeatherDisplay:10.37,2013-01-07 07:41:00,
2013-01-07 02:46:00,31.9,24.3,29.93,NNE,22,18.4,18.4,73,0.00,OVC,,0.00,WeatherDisplay:10.37,2013-01-07 07:46:00,
2013-01-07 02:51:00,31.4,23.8,29.93,NW,315,13.8,13.8,73,0.00,OVC,,0.00,WeatherDisplay:10.37,2013-01-07 07:51:00,
2013-01-07 02:56:00,31.4,23.7,29.93,NW,315,15.0,15.0,73,0.00,OVC,,0.00,WeatherDisplay:10.37,2013-01-07 07:56:00,
2013-01-07 03:01:00,31.0,23.3,30.00,NW,315,13.6,13.6,73,0.00,OVC,,0.00,WeatherDisplay:10.37,2013-01-07 08:01:00,
2013-01-07 03:06:00,30.9,23.2,30.00,WNW,292,9.6,9.6,73,0.00,OVC,,0.00,WeatherDisplay:10.37,2013-01-07 08:06:00,
2013-01-07 03:11:00,30.4,26.1,27.28,NW,315,10.4,10.4,84,0.00,OVC,,0.00,WeatherDisplay:10.37,2013-01-07 08:11:00,
2013-01-07 03:16:00,29.3,25.1,30.00,NNW,338,17.3,17.3,84,0.00,OVC,,0.00,WeatherDisplay:10.37,2013-01-07 08:16:00,
2013-01-07 03:21:00,28.0,23.8,30.00,ENE,68,15.0,15.0,84,0.00,OVC,,0.00,WeatherDisplay:10.37,2013-01-07 08:21:00,
2013-01-07 03:26:00,27.2,23.0,30.00,North,360,10.4,10.4,84,0.00,OVC,,0.00,WeatherDisplay:10.37,2013-01-07 08:26:00,
2013-01-07 03:31:00,26.5,22.4,30.00,ENE,68,13.8,13.8,84,0.00,OVC,,0.00,WeatherDisplay:10.37,2013-01-07 08:31:00,
2013-01-07 03:36:00,25.8,21.6,30.00,NW,315,18.4,18.4,84,0.00,OVC,,0.00,WeatherDisplay:10.37,2013-01-07 08:36:00,
2013-01-07 03:41:00,25.2,21.0,30.00,West,270,16.1,16.1,84,0.00,OVC,,0.00,WeatherDisplay:10.37,2013-01-07 08:41:00,
2013-01-07 03:46:00,24.9,20.7,30.00,North,360,6.9,6.9,84,0.00,OVC,,0.00,WeatherDisplay:10.37,2013-01-07 08:46:00,
2013-01-07 03:51:00,24.7,20.5,30.00,NW,315,8.1,8.1,84,0.00,OVC,,0.00,WeatherDisplay:10.37,2013-01-07 08:51:00,
2013-01-07 03:56:00,24.7,20.5,30.00,North,360,16.1,16.1,84,0.00,OVC,,0.00,WeatherDisplay:10.37,2013-01-07 08:56:00,
2013-01-07 04:01:00,24.6,20.5,30.07,NNW,338,13.3,13.3,84,0.00,OVC,,0.00,WeatherDisplay:10.37,2013-01-07 09:01:00,
2013-01-07 04:06:00,24.5,20.4,30.07,ENE,68,11.5,11.5,84,0.00,OVC,,0.00,WeatherDisplay:10.37,2013-01-07 09:06:00,
2013-01-07 04:11:00,24.2,20.0,27.28,NNW,338,13.8,13.8,84,0.00,OVC,,0.00,WeatherDisplay:10.37,2013-01-07 09:11:00,
2013-01-07 04:16:00,24.0,19.9,30.07,NW,315,10.0,10.0,84,0.00,OVC,,0.00,WeatherDisplay:10.37,2013-01-07 09:16:00,
2013-01-07 04:21:00,24.0,19.8,30.07,NNE,22,10.7,10.7,84,0.00,OVC,,0.00,WeatherDisplay:10.37,2013-01-07 09:21:00,
2013-01-07 04:26:00,23.6,19.5,30.07,NW,315,10.4,10.4,84,0.00,OVC,,0.00,WeatherDisplay:10.37,2013-01-07 09:26:00,
2013-01-07 04:31:00,23.2,19.1,30.07,NNW,338,13.8,13.8,84,0.00,OVC,,0.00,WeatherDisplay:10.37,2013-01-07 09:31:00,
2013-01-07 04:36:00,22.7,18.6,30.07,NW,315,11.5,11.5,84,0.00,OVC,,0.00,WeatherDisplay:10.37,2013-01-07 09:36:00,
2013-01-07 04:41:00,22.7,18.6,30.07,NNW,338,9.2,9.2,84,0.00,OVC,,0.00,WeatherDisplay:10.37,2013-01-07 09:41:00,
2013-01-07 04:46:00,22.3,18.2,30.07,NW,315,12.7,12.7,84,0.00,OVC,,0.00,WeatherDisplay:10.37,2013-01-07 09:46:00,
2013-01-07 04:51:00,22.0,17.9,30.07,West,270,19.6,19.6,84,0.00,OVC,,0.00,WeatherDisplay:10.37,2013-01-07 09:51:00,
2013-01-07 04:56:00,21.8,17.7,30.07,NNW,338,10.6,10.6,84,0.00,OVC,,0.00,WeatherDisplay:10.37,2013-01-07 09:56:00,
2013-01-07 05:01:00,21.6,17.5,30.11,NW,315,13.8,13.8,84,0.00,OVC,,0.00,WeatherDisplay:10.37,2013-01-07 10:01:00,
2013-01-07 05:07:00,21.5,17.5,30.11,WNW,292,10.4,10.4,84,0.00,OVC,,0.00,WeatherDisplay:10.37,2013-01-07 10:07:00,
2013-01-07 05:12:00,20.9,16.8,30.11,NW,315,10.6,10.6,84,0.00,OVC,,0.00,WeatherDisplay:10.37,2013-01-07 10:12:00,
2013-01-07 05:17:00,20.8,16.7,30.11,NNW,338,12.7,12.7,84,0.00,OVC,,0.00,WeatherDisplay:10.37,2013-01-07 10:17:00,
2013-01-07 05:23:00,20.5,16.5,30.11,NW,315,13.8,13.8,84,0.00,OVC,,0.00,WeatherDisplay:10.37,2013-01-07 10:23:00,
2013-01-07 05:28:00,20.5,16.5,30.11,NE,45,17.3,17.3,84,0.00,OVC,,0.00,WeatherDisplay:10.37,2013-01-07 10:28:00,
2013-01-07 05:33:00,20.2,16.1,30.11,NW,315,12.2,12.2,84,0.00,OVC,,0.00,WeatherDisplay:10.37,2013-01-07 10:33:00,
2013-01-07 05:38:00,20.1,16.0,30.11,NW,315,15.0,15.0,84,0.00,OVC,,0.00,WeatherDisplay:10.37,2013-01-07 10:38:00,
2013-01-07 05:43:00,19.9,15.8,30.11,NNW,338,26.5,26.5,84,0.00,OVC,,0.00,WeatherDisplay:10.37,2013-01-07 10:43:00,
2013-01-07 05:48:00,19.8,15.7,30.11,NW,315,17.3,17.3,84,0.00,OVC,,0.00,WeatherDisplay:10.37,2013-01-07 10:48:00,
2013-01-07 05:54:00,19.5,15.5,30.11,NNE,22,10.4,10.4,84,0.00,OVC,,0.00,WeatherDisplay:10.37,2013-01-07 10:54:00,
2013-01-07 05:59:00,19.4,15.4,30.11,NNE,22,15.0,15.0,84,0.00,OVC,,0.00,WeatherDisplay:10.37,2013-01-07 10:59:00,
2013-01-07 06:04:00,19.1,15.0,30.15,NNW,338,10.4,10.4,84,0.00,OVC,,0.00,WeatherDisplay:10.37,2013-01-07 11:04:00,
2013-01-07 06:09:00,19.0,15.5,30.15,NNW,338,12.7,12.7,86,0.00,OVC,,0.00,WeatherDisplay:10.37,2013-01-07 11:09:00,
2013-01-07 06:14:00,18.9,15.9,30.15,North,360,10.4,10.4,88,0.00,OVC,,0.00,WeatherDisplay:10.37,2013-01-07 11:14:00,
2013-01-07 06:19:00,18.6,15.6,30.15,NNW,338,15.0,15.0,88,0.00,OVC,,0.00,WeatherDisplay:10.37,2013-01-07 11:19:00,
2013-01-07 06:24:00,18.4,15.4,30.15,North,360,13.8,13.8,88,0.00,OVC,,0.00,WeatherDisplay:10.37,2013-01-07 11:24:00,
2013-01-07 06:29:00,18.5,15.5,30.15,NW,315,13.8,13.8,88,0.00,OVC,,0.00,WeatherDisplay:10.37,2013-01-07 11:29:00,
2013-01-07 06:34:00,18.3,15.3,30.15,NW,315,13.8,13.8,88,0.00,OVC,,0.00,WeatherDisplay:10.37,2013-01-07 11:34:00,
2013-01-07 06:40:00,18.2,15.3,30.15,North,360,10.4,10.4,88,0.00,OVC,,0.00,WeatherDisplay:10.37,2013-01-07 11:40:00,
2013-01-07 06:46:00,17.9,14.9,30.15,NNE,22,11.1,11.1,88,0.00,OVC,,0.00,WeatherDisplay:10.37,2013-01-07 11:46:00,
2013-01-07 06:51:00,17.8,14.8,30.15,NNW,338,11.5,11.5,88,0.00,OVC,,0.00,WeatherDisplay:10.37,2013-01-07 11:51:00,
2013-01-07 06:56:00,17.8,14.9,30.15,West,270,8.1,8.1,88,0.00,OVC,,0.00,WeatherDisplay:10.37,2013-01-07 11:56:00,
2013-01-07 07:01:00,17.7,14.8,30.17,North,360,9.2,9.2,88,0.00,OVC,,0.00,WeatherDisplay:10.37,2013-01-07 12:01:00,
2013-01-07 07:07:00,17.8,14.8,30.17,WNW,292,9.2,9.2,88,0.00,OVC,,0.00,WeatherDisplay:10.37,2013-01-07 12:07:00,
2013-01-07 07:12:00,17.4,14.5,30.17,WNW,292,13.8,13.8,88,0.00,OVC,,0.00,WeatherDisplay:10.37,2013-01-07 12:12:00,
2013-01-07 07:17:00,17.5,14.5,30.17,NW,315,13.8,13.8,88,0.00,OVC,,0.00,WeatherDisplay:10.37,2013-01-07 12:17:00,
2013-01-07 07:22:00,17.6,14.7,30.17,NW,315,9.2,9.2,88,0.00,OVC,,0.00,WeatherDisplay:10.37,2013-01-07 12:22:00,
2013-01-07 07:27:00,17.2,14.2,30.17,NW,315,13.8,13.8,88,0.00,OVC,,0.00,WeatherDisplay:10.37,2013-01-07 12:27:00,
2013-01-07 07:32:00,17.6,14.7,30.17,NW,315,9.2,9.2,88,0.00,OVC,,0.00,WeatherDisplay:10.37,2013-01-07 12:32:00,
2013-01-07 07:37:00,17.4,14.5,30.17,NW,315,13.8,13.8,88,0.00,OVC,,0.00,WeatherDisplay:10.37,2013-01-07 12:37:00,
2013-01-07 07:42:00,17.5,14.6,30.17,NW,315,13.8,13.8,88,0.00,OVC,,0.00,WeatherDisplay:10.37,2013-01-07 12:42:00,
2013-01-07 07:47:00,17.5,14.5,30.17,NW,315,6.9,6.9,88,0.00,OVC,,0.00,WeatherDisplay:10.37,2013-01-07 12:47:00,
2013-01-07 07:52:00,17.6,14.7,30.17,WNW,292,10.5,10.5,88,0.00,OVC,,0.00,WeatherDisplay:10.37,2013-01-07 12:52:00,
2013-01-07 07:57:00,17.8,14.8,30.17,NW,315,12.7,12.7,88,0.00,OVC,,0.00,WeatherDisplay:10.37,2013-01-07 12:57:00,
2013-01-07 08:02:00,17.8,14.9,27.28,North,360,10.4,10.4,88,0.00,OVC,,0.00,WeatherDisplay:10.37,2013-01-07 13:02:00,
2013-01-07 08:07:00,17.8,12.4,30.23,NNW,338,10.4,10.4,79,0.00,OVC,,0.00,WeatherDisplay:10.37,2013-01-07 13:07:00,
2013-01-07 08:12:00,17.7,12.2,30.23,NW,315,9.2,9.2,79,0.00,OVC,,0.00,WeatherDisplay:10.37,2013-01-07 13:12:00,
2013-01-07 08:17:00,17.9,12.5,30.23,NNW,338,8.3,8.3,79,0.00,OVC,,0.00,WeatherDisplay:10.37,2013-01-07 13:17:00,
2013-01-07 08:22:00,17.9,12.5,30.23,NNW,338,11.5,11.5,79,0.00,OVC,,0.00,WeatherDisplay:10.37,2013-01-07 13:22:00,
2013-01-07 08:27:00,18.1,12.7,30.23,NW,315,11.5,11.5,79,0.00,OVC,,0.00,WeatherDisplay:10.37,2013-01-07 13:27:00,
2013-01-07 08:32:00,18.1,12.6,30.23,NW,315,6.9,6.9,79,0.00,OVC,,0.00,WeatherDisplay:10.37,2013-01-07 13:32:00,
2013-01-07 08:37:00,18.0,12.6,30.23,NW,315,15.2,15.2,79,0.00,OVC,,0.00,WeatherDisplay:10.37,2013-01-07 13:37:00,
2013-01-07 08:42:00,17.8,12.4,30.23,North,360,15.0,15.0,79,0.00,OVC,,0.00,WeatherDisplay:10.37,2013-01-07 13:42:00,
2013-01-07 08:47:00,17.8,12.4,30.23,NW,315,8.3,8.3,79,0.00,OVC,,0.00,WeatherDisplay:10.37,2013-01-07 13:47:00,
2013-01-07 08:52:00,17.9,12.5,30.23,NNW,338,17.3,17.3,79,0.00,OVC,,0.00,WeatherDisplay:10.37,2013-01-07 13:52:00,
2013-01-07 08:57:00,17.9,12.5,30.23,NW,315,9.2,9.2,79,0.00,OVC,,0.00,WeatherDisplay:10.37,2013-01-07 13:57:00,
2013-01-07 09:02:00,18.4,13.0,30.27,NW,315,12.7,12.7,79,0.00,OVC,,0.00,WeatherDisplay:10.37,2013-01-07 14:02:00,
2013-01-07 09:07:00,18.5,13.1,30.27,NW,315,18.4,18.4,79,0.00,OVC,,0.00,WeatherDisplay:10.37,2013-01-07 14:07:00,
2013-01-07 09:12:00,18.4,13.0,30.27,NNE,22,11.5,11.5,79,0.00,OVC,,0.00,WeatherDisplay:10.37,2013-01-07 14:12:00,
2013-01-07 09:17:00,18.5,13.1,30.27,NW,315,13.8,13.8,79,0.00,OVC,,0.00,WeatherDisplay:10.37,2013-01-07 14:17:00,
2013-01-07 09:22:00,19.3,13.8,30.27,NW,315,13.5,13.5,79,0.00,OVC,,0.00,WeatherDisplay:10.37,2013-01-07 14:22:00,
2013-01-07 09:27:00,19.0,13.5,30.27,North,360,17.1,17.1,79,0.00,OVC,,0.00,WeatherDisplay:10.37,2013-01-07 14:27:00,
2013-01-07 09:32:00,18.7,13.2,27.28,WNW,292,20.7,20.7,79,0.00,OVC,,0.00,WeatherDisplay:10.37,2013-01-07 14:32:00,
2013-01-07 09:37:00,18.7,13.3,30.27,NW,315,19.6,19.6,79,0.00,OVC,,0.00,WeatherDisplay:10.37,2013-01-07 14:37:00,
2013-01-07 09:42:00,18.8,13.4,30.27,East,90,25.3,25.3,79,0.00,OVC,,0.00,WeatherDisplay:10.37,2013-01-07 14:42:00,
2013-01-07 09:47:00,19.0,13.6,30.27,WNW,292,13.8,13.8,79,0.00,OVC,,0.00,WeatherDisplay:10.37,2013-01-07 14:47:00,
2013-01-07 09:52:00,19.0,13.6,30.27,NW,315,17.3,17.3,79,0.00,OVC,,0.00,WeatherDisplay:10.37,2013-01-07 14:52:00,
2013-01-07 09:57:00,19.5,14.0,30.27,ENE,68,13.8,13.8,79,0.00,OVC,,0.00,WeatherDisplay:10.37,2013-01-07 14:57:00,
2013-01-07 10:02:00,19.5,14.0,27.28,North,360,18.4,18.4,79,0.00,OVC,,0.00,WeatherDisplay:10.37,2013-01-07 15:02:00,
2013-01-07 10:07:00,19.3,13.8,30.32,East,90,25.3,25.3,79,0.00,OVC,,0.00,WeatherDisplay:10.37,2013-01-07 15:07:00,
2013-01-07 10:12:00,19.7,13.9,30.32,NW,315,13.7,13.7,78,0.00,OVC,,0.00,WeatherDisplay:10.37,2013-01-07 15:12:00,
2013-01-07 10:17:00,19.4,13.4,30.32,NW,315,17.3,17.3,77,0.00,OVC,,0.00,WeatherDisplay:10.37,2013-01-07 15:17:00,
2013-01-07 10:22:00,19.6,13.5,30.32,NW,315,13.8,13.8,77,0.00,OVC,,0.00,WeatherDisplay:10.37,2013-01-07 15:22:00,
2013-01-07 10:27:00,20.2,14.2,30.32,NE,45,8.1,8.1,77,0.00,OVC,,0.00,WeatherDisplay:10.37,2013-01-07 15:27:00,
2013-01-07 10:32:00,20.3,14.2,30.32,NNW,338,12.7,12.7,77,0.00,OVC,,0.00,WeatherDisplay:10.37,2013-01-07 15:32:00,
2013-01-07 10:37:00,20.1,14.1,30.32,NW,315,16.1,16.1,77,0.00,OVC,,0.00,WeatherDisplay:10.37,2013-01-07 15:37:00,
2013-01-07 10:42:00,20.2,14.2,30.32,NNW,338,6.9,6.9,77,0.00,OVC,,0.00,WeatherDisplay:10.37,2013-01-07 15:42:00,
2013-01-07 10:47:00,20.7,14.6,30.32,NW,315,10.9,10.9,77,0.00,OVC,,0.00,WeatherDisplay:10.37,2013-01-07 15:47:00,
2013-01-07 10:52:00,20.4,14.3,30.32,WNW,292,18.4,18.4,77,0.00,OVC,,0.00,WeatherDisplay:10.37,2013-01-07 15:52:00,
2013-01-07 10:57:00,20.7,14.6,30.32,NNW,338,19.6,19.6,77,0.00,OVC,,0.00,WeatherDisplay:10.37,2013-01-07 15:57:00,
2013-01-07 11:02:00,20.9,14.8,30.32,West,270,17.3,17.3,77,0.00,OVC,,0.00,WeatherDisplay:10.37,2013-01-07 16:02:00,
2013-01-07 11:07:00,21.1,15.0,30.32,WNW,292,11.5,11.5,77,0.00,OVC,,0.00,WeatherDisplay:10.37,2013-01-07 16:07:00,
2013-01-07 11:12:00,21.4,15.3,30.32,NE,45,13.8,13.8,77,0.00,OVC,,0.00,WeatherDisplay:10.37,2013-01-07 16:12:00,
2013-01-07 11:17:00,21.9,15.8,30.32,NNW,338,10.4,10.4,77,0.00,OVC,,0.00,WeatherDisplay:10.37,2013-01-07 16:17:00,
2013-01-07 11:22:00,21.8,15.7,30.32,WNW,292,17.3,17.3,77,0.00,OVC,,0.00,WeatherDisplay:10.37,2013-01-07 16:22:00,
2013-01-07 11:27:00,21.1,15.0,30.32,West,270,17.3,17.3,77,0.00,OVC,,0.00,WeatherDisplay:10.37,2013-01-07 16:27:00,
2013-01-07 11:32:00,21.8,15.7,30.32,North,360,12.7,12.7,77,0.00,OVC,,0.00,WeatherDisplay:10.37,2013-01-07 16:32:00,
2013-01-07 11:37:00,21.9,15.8,30.32,NW,315,14.3,14.3,77,0.00,OVC,,0.00,WeatherDisplay:10.37,2013-01-07 16:37:00,
2013-01-07 11:42:00,22.2,16.0,30.32,NW,315,10.4,10.4,77,0.00,OVC,,0.00,WeatherDisplay:10.37,2013-01-07 16:42:00,
2013-01-07 11:47:00,21.8,15.7,30.32,NE,45,15.0,15.0,77,0.00,OVC,,0.00,WeatherDisplay:10.37,2013-01-07 16:47:00,
2013-01-07 11:52:00,22.2,16.0,30.32,NNE,22,13.8,13.8,77,0.00,OVC,,0.00,WeatherDisplay:10.37,2013-01-07 16:52:00,
2013-01-07 11:57:00,22.0,15.9,30.32,WNW,292,18.4,18.4,77,0.00,OVC,,0.00,WeatherDisplay:10.37,2013-01-07 16:57:00,
2013-01-07 12:02:00,21.1,15.1,30.32,North,360,18.4,18.4,77,0.00,OVC,,0.00,WeatherDisplay:10.37,2013-01-07 17:02:00,
2013-01-07 12:07:00,21.8,15.7,30.32,WNW,292,10.4,10.4,77,0.00,OVC,,0.00,WeatherDisplay:10.37,2013-01-07 17:07:00,
2013-01-07 12:12:00,22.3,16.2,30.32,North,360,15.0,15.0,77,0.00,OVC,,0.00,WeatherDisplay:10.37,2013-01-07 17:12:00,
2013-01-07 12:17:00,23.4,17.2,30.32,NNW,338,11.7,11.7,77,0.00,OVC,,0.00,WeatherDisplay:10.37,2013-01-07 17:17:00,
2013-01-07 12:22:00,22.8,16.7,30.32,NW,315,12.7,12.7,77,0.00,OVC,,0.00,WeatherDisplay:10.37,2013-01-07 17:22:00,
2013-01-07 12:27:00,23.5,17.3,30.32,ENE,68,11.5,11.5,77,0.00,OVC,,0.00,WeatherDisplay:10.37,2013-01-07 17:27:00,
2013-01-07 12:32:00,23.1,16.9,30.32,NW,315,20.7,20.7,77,0.00,OVC,,0.00,WeatherDisplay:10.37,2013-01-07 17:32:00,
2013-01-07 12:37:00,22.5,16.4,30.32,NE,45,6.9,6.9,77,0.00,OVC,,0.00,WeatherDisplay:10.37,2013-01-07 17:37:00,
2013-01-07 12:42:00,22.0,15.9,30.32,NW,315,11.5,11.5,77,0.00,OVC,,0.00,WeatherDisplay:10.37,2013-01-07 17:42:00,
2013-01-07 12:47:00,22.8,16.6,30.32,West,270,6.9,6.9,77,0.00,OVC,,0.00,WeatherDisplay:10.37,2013-01-07 17:47:00,
2013-01-07 12:52:00,23.5,17.4,30.32,ESE,112,3.5,3.5,77,0.00,OVC,,0.00,WeatherDisplay:10.37,2013-01-07 17:52:00,
2013-01-07 12:57:00,23.8,17.7,30.32,NNW,338,5.8,5.8,77,0.00,OVC,,0.00,WeatherDisplay:10.37,2013-01-07 17:57:00,
2013-01-07 13:02:00,23.6,17.4,30.32,NNW,338,9.2,9.2,77,0.00,OVC,,0.00,WeatherDisplay:10.37,2013-01-07 18:02:00,
2013-01-07 13:07:00,23.0,16.9,30.32,NNW,338,15.1,15.1,77,0.00,OVC,,0.00,WeatherDisplay:10.37,2013-01-07 18:07:00,
2013-01-07 13:12:00,22.3,13.3,30.32,WNW,292,15.0,15.0,68,0.00,OVC,,0.00,WeatherDisplay:10.37,2013-01-07 18:12:00,
2013-01-07 13:17:00,22.3,13.4,30.32,NW,315,16.7,16.7,68,0.00,OVC,,0.00,WeatherDisplay:10.37,2013-01-07 18:17:00,
2013-01-07 13:22:00,22.6,13.6,30.32,WNW,292,9.2,9.2,68,0.00,OVC,,0.00,WeatherDisplay:10.37,2013-01-07 18:22:00,
2013-01-07 13:27:00,22.8,13.8,30.32,NW,315,12.7,12.7,68,0.00,OVC,,0.00,WeatherDisplay:10.37,2013-01-07 18:27:00,
2013-01-07 13:32:00,22.8,13.8,27.28,NW,315,11.5,11.5,68,0.00,OVC,,0.00,WeatherDisplay:10.37,2013-01-07 18:32:00,
2013-01-07 13:37:00,22.0,13.1,30.32,NNW,338,20.7,20.7,68,0.00,OVC,,0.00,WeatherDisplay:10.37,2013-01-07 18:37:00,
2013-01-07 13:42:00,22.1,13.1,30.32,North,360,13.8,13.8,68,0.00,OVC,,0.00,WeatherDisplay:10.37,2013-01-07 18:42:00,
2013-01-07 13:47:00,22.7,13.7,30.32,NW,315,6.7,6.7,68,0.00,OVC,,0.00,WeatherDisplay:10.37,2013-01-07 18:47:00,
2013-01-07 13:52:00,23.1,14.1,30.32,NNW,338,4.6,4.6,68,0.00,OVC,,0.00,WeatherDisplay:10.37,2013-01-07 18:52:00,
2013-01-07 13:57:00,23.1,14.1,30.32,NNW,338,13.8,13.8,68,0.00,OVC,,0.00,WeatherDisplay:10.37,2013-01-07 18:57:00,
2013-01-07 14:02:00,23.1,14.1,27.28,NW,315,11.5,11.5,68,0.00,CLR,,0.00,WeatherDisplay:10.37,2013-01-07 19:02:00,
2013-01-07 14:07:00,23.1,14.1,30.33,SW,225,4.6,4.6,68,0.00,CLR,,0.00,WeatherDisplay:10.37,2013-01-07 19:07:00,
2013-01-07 14:12:00,23.5,14.4,30.33,North,360,8.1,8.1,68,0.00,CLR,,0.00,WeatherDisplay:10.37,2013-01-07 19:12:00,
2013-01-07 14:17:00,23.7,14.7,30.33,NNW,338,7.9,7.9,68,0.00,CLR,,0.00,WeatherDisplay:10.37,2013-01-07 19:17:00,
2013-01-07 14:22:00,23.6,14.5,30.33,NE,45,11.5,11.5,68,0.00,CLR,,0.00,WeatherDisplay:10.37,2013-01-07 19:22:00,
2013-01-07 14:27:00,23.3,14.3,30.33,NNW,338,6.9,6.9,68,0.00,CLR,,0.00,WeatherDisplay:10.37,2013-01-07 19:27:00,
2013-01-07 14:32:00,23.1,14.1,27.28,NE,45,8.1,8.1,68,0.00,CLR,,0.00,WeatherDisplay:10.37,2013-01-07 19:32:00,
2013-01-07 14:37:00,23.1,14.1,30.33,NNE,22,8.3,8.3,68,0.00,CLR,,0.00,WeatherDisplay:10.37,2013-01-07 19:37:00,
2013-01-07 14:42:00,22.8,13.8,30.33,NNE,22,9.2,9.2,68,0.00,CLR,,0.00,WeatherDisplay:10.37,2013-01-07 19:42:00,
2013-01-07 14:48:00,22.8,13.8,30.33,WNW,292,4.7,4.7,68,0.00,CLR,,0.00,WeatherDisplay:10.37,2013-01-07 19:48:00,
2013-01-07 14:53:00,23.1,14.1,30.33,West,270,3.5,3.5,68,0.00,CLR,,0.00,WeatherDisplay:10.37,2013-01-07 19:53:00,
2013-01-07 14:58:00,23.1,14.1,30.33,NE,45,5.0,5.0,68,0.00,CLR,,0.00,WeatherDisplay:10.37,2013-01-07 19:58:00,
2013-01-07 15:03:00,23.2,14.2,30.32,NE,45,5.8,5.8,68,0.00,CLR,,0.00,WeatherDisplay:10.37,2013-01-07 20:03:00,
2013-01-07 15:08:00,23.0,13.7,30.32,NNE,22,9.2,9.2,67,0.00,CLR,,0.00,WeatherDisplay:10.37,2013-01-07 20:08:00,
2013-01-07 15:13:00,23.1,13.4,30.32,NE,45,6.1,6.1,66,0.00,CLR,,0.00,WeatherDisplay:10.37,2013-01-07 20:13:00,
2013-01-07 15:18:00,22.8,13.1,30.32,North,360,4.6,4.6,66,0.00,CLR,,0.00,WeatherDisplay:10.37,2013-01-07 20:18:00,
2013-01-07 15:21:00,22.6,12.9,30.32,NE,45,3.5,3.5,66,0.00,CLR,,0.00,WeatherDisplay:10.37,2013-01-07 20:21:00,
2013-01-07 15:26:00,22.9,13.2,30.32,WNW,292,3.5,3.5,66,0.00,CLR,,0.00,WeatherDisplay:10.37,2013-01-07 20:26:00,
2013-01-07 15:31:00,22.8,13.1,30.32,WSW,248,3.5,3.5,66,0.00,CLR,,0.00,WeatherDisplay:10.37,2013-01-07 20:31:00,
2013-01-07 15:36:00,22.4,12.8,30.32,North,360,8.1,8.1,66,0.00,CLR,,0.00,WeatherDisplay:10.37,2013-01-07 20:36:00,
2013-01-07 15:41:00,22.3,12.6,30.32,NW,315,4.6,4.6,66,0.00,CLR,,0.00,WeatherDisplay:10.37,2013-01-07 20:41:00,
2013-01-07 15:46:00,22.0,12.4,30.32,WSW,248,5.8,5.8,66,0.00,CLR,,0.00,WeatherDisplay:10.37,2013-01-07 20:46:00,
2013-01-07 15:51:00,21.9,12.2,30.32,NNE,22,3.5,3.5,66,0.00,CLR,,0.00,WeatherDisplay:10.37,2013-01-07 20:51:00,
2013-01-07 15:56:00,21.5,11.9,30.32,WNW,292,4.6,4.6,66,0.00,CLR,,0.00,WeatherDisplay:10.37,2013-01-07 20:56:00,
2013-01-07 16:02:00,21.2,11.6,30.34,WNW,292,6.9,6.9,66,0.00,CLR,,0.00,WeatherDisplay:10.37,2013-01-07 21:02:00,
2013-01-07 16:07:00,21.1,11.6,30.34,SW,225,1.2,1.2,66,0.00,CLR,,0.00,WeatherDisplay:10.37,2013-01-07 21:07:00,
2013-01-07 16:12:00,21.1,7.0,30.34,West,270,0.0,0.0,54,0.00,CLR,,0.00,WeatherDisplay:10.37,2013-01-07 21:12:00,
2013-01-07 16:17:00,20.2,6.2,30.34,South,180,0.0,0.0,54,0.00,CLR,,0.00,WeatherDisplay:10.37,2013-01-07 21:17:00,
2013-01-07 16:22:00,20.1,6.1,30.34,South,180,0.0,0.0,54,0.00,CLR,,0.00,WeatherDisplay:10.37,2013-01-07 21:22:00,
2013-01-07 16:27:00,19.5,5.5,30.34,SSW,202,3.5,3.5,54,0.00,CLR,,0.00,WeatherDisplay:10.37,2013-01-07 21:27:00,
2013-01-07 16:32:00,19.1,5.1,27.28,SW,225,3.5,3.5,54,0.00,CLR,,0.00,WeatherDisplay:10.37,2013-01-07 21:32:00,
2013-01-07 16:37:00,18.7,4.8,30.34,South,180,3.0,3.0,54,0.00,CLR,,0.00,WeatherDisplay:10.37,2013-01-07 21:37:00,
2013-01-07 16:42:00,18.1,4.2,30.34,SSW,202,1.7,1.7,54,0.00,CLR,,0.00,WeatherDisplay:10.37,2013-01-07 21:42:00,
2013-01-07 16:47:00,17.7,3.9,30.34,SW,225,1.5,1.5,54,0.00,CLR,,0.00,WeatherDisplay:10.37,2013-01-07 21:47:00,
2013-01-07 16:52:00,17.6,3.8,30.34,SSW,202,3.0,3.0,54,0.00,CLR,,0.00,WeatherDisplay:10.37,2013-01-07 21:52:00,
2013-01-07 16:57:00,17.3,3.5,30.34,SSE,158,4.6,4.6,54,0.00,CLR,,0.00,WeatherDisplay:10.37,2013-01-07 21:57:00,
2013-01-07 17:02:00,17.1,3.3,30.34,SSW,202,4.6,4.6,54,0.00,CLR,,0.00,WeatherDisplay:10.37,2013-01-07 22:02:00,
2013-01-07 17:07:00,16.8,3.0,30.34,SW,225,3.5,3.5,54,0.00,CLR,,0.00,WeatherDisplay:10.37,2013-01-07 22:07:00,
2013-01-07 17:12:00,16.3,6.9,30.34,SSW,202,1.5,1.5,66,0.00,CLR,,0.00,WeatherDisplay:10.37,2013-01-07 22:12:00,
2013-01-07 17:17:00,16.1,6.8,30.34,SW,225,4.6,4.6,66,0.00,CLR,,0.00,WeatherDisplay:10.37,2013-01-07 22:17:00,
2013-01-07 17:22:00,16.1,6.8,30.34,SW,225,4.6,4.6,66,0.00,CLR,,0.00,WeatherDisplay:10.37,2013-01-07 22:22:00,
2013-01-07 17:27:00,16.5,7.1,30.34,SW,225,3.5,3.5,66,0.00,CLR,,0.00,WeatherDisplay:10.37,2013-01-07 22:27:00,
2013-01-07 17:32:00,16.3,6.9,30.34,SSW,202,3.5,3.5,66,0.00,CLR,,0.00,WeatherDisplay:10.37,2013-01-07 22:32:00,
2013-01-07 17:37:00,15.9,6.5,30.34,SSW,202,4.6,4.6,66,0.00,CLR,,0.00,WeatherDisplay:10.37,2013-01-07 22:37:00,
2013-01-07 17:42:00,15.6,6.2,30.34,SW,225,4.6,4.6,66,0.00,CLR,,0.00,WeatherDisplay:10.37,2013-01-07 22:42:00,
2013-01-07 17:47:00,15.6,6.3,30.34,SW,225,3.5,3.5,66,0.00,CLR,,0.00,WeatherDisplay:10.37,2013-01-07 22:47:00,
2013-01-07 17:52:00,15.8,6.4,30.34,SW,225,4.6,4.6,66,0.00,CLR,,0.00,WeatherDisplay:10.37,2013-01-07 22:52:00,
2013-01-07 17:57:00,15.6,6.2,30.34,SW,225,3.5,3.5,66,0.00,CLR,,0.00,WeatherDisplay:10.37,2013-01-07 22:57:00,
2013-01-07 18:02:00,15.2,5.9,30.33,SW,225,4.6,4.6,66,0.00,CLR,,0.00,WeatherDisplay:10.37,2013-01-07 23:02:00,
2013-01-07 18:07:00,15.1,5.8,30.33,SW,225,3.5,3.5,66,0.00,CLR,,0.00,WeatherDisplay:10.37,2013-01-07 23:07:00,
2013-01-07 18:12:00,15.1,9.2,30.33,SSW,202,6.9,6.9,77,0.00,CLR,,0.00,WeatherDisplay:10.37,2013-01-07 23:12:00,
2013-01-07 18:17:00,14.8,8.9,30.33,South,180,6.9,6.9,77,0.00,CLR,,0.00,WeatherDisplay:10.37,2013-01-07 23:17:00,
2013-01-07 18:23:00,14.6,8.7,30.33,SSW,202,5.8,5.8,77,0.00,CLR,,0.00,WeatherDisplay:10.37,2013-01-07 23:23:00,
2013-01-07 18:29:00,14.6,8.7,30.33,South,180,6.9,6.9,77,0.00,CLR,,0.00,WeatherDisplay:10.37,2013-01-07 23:29:00,
2013-01-07 18:34:00,14.3,8.4,30.33,South,180,4.6,4.6,77,0.00,CLR,,0.00,WeatherDisplay:10.37,2013-01-07 23:34:00,
2013-01-07 18:39:00,14.3,8.4,30.33,SSW,202,6.1,6.1,77,0.00,CLR,,0.00,WeatherDisplay:10.37,2013-01-07 23:39:00,
2013-01-07 18:44:00,14.4,8.5,30.33,South,180,8.1,8.1,77,0.00,CLR,,0.00,WeatherDisplay:10.37,2013-01-07 23:44:00,
2013-01-07 18:50:00,14.6,8.7,30.33,South,180,4.6,4.6,77,0.00,CLR,,0.00,WeatherDisplay:10.37,2013-01-07 23:50:00,
2013-01-07 18:55:00,13.9,8.1,30.33,SSW,202,4.6,4.6,77,0.00,CLR,,0.00,WeatherDisplay:10.37,2013-01-07 23:55:00,
2013-01-07 19:00:00,14.2,8.3,30.33,SE,135,4.6,4.6,77,0.00,CLR,,0.00,WeatherDisplay:10.37,2013-01-08 00:00:00,
2013-01-07 19:05:00,14.3,8.4,30.32,SSW,202,5.8,5.8,77,0.00,CLR,,0.00,WeatherDisplay:10.37,2013-01-08 00:05:00,
2013-01-07 19:10:00,13.8,7.9,30.32,SSW,202,4.6,4.6,77,0.00,CLR,,0.00,WeatherDisplay:10.37,2013-01-08 00:10:00,
2013-01-07 19:15:00,13.1,7.2,30.32,SSW,202,5.0,5.0,77,0.00,CLR,,0.00,WeatherDisplay:10.37,2013-01-08 00:15:00,
2013-01-07 19:20:00,13.0,7.2,30.32,SSW,202,5.8,5.8,77,0.00,CLR,,0.00,WeatherDisplay:10.37,2013-01-08 00:20:00,
2013-01-07 19:25:00,13.3,7.4,30.32,SSE,158,5.8,5.8,77,0.00,CLR,,0.00,WeatherDisplay:10.37,2013-01-08 00:25:00,
2013-01-07 19:30:00,13.3,7.5,30.32,SW,225,4.6,4.6,77,0.00,CLR,,0.00,WeatherDisplay:10.37,2013-01-08 00:30:00,
2013-01-07 19:36:00,12.8,7.0,30.32,South,180,4.6,4.6,77,0.00,CLR,,0.00,WeatherDisplay:10.37,2013-01-08 00:36:00,
2013-01-07 19:41:00,12.8,6.9,30.32,SSW,202,4.6,4.6,77,0.00,CLR,,0.00,WeatherDisplay:10.37,2013-01-08 00:41:00,
2013-01-07 19:47:00,12.4,6.6,30.32,SSW,202,4.6,4.6,77,0.00,CLR,,0.00,WeatherDisplay:10.37,2013-01-08 00:47:00,
2013-01-07 19:52:00,12.7,6.9,30.32,SE,135,5.8,5.8,77,0.00,CLR,,0.00,WeatherDisplay:10.37,2013-01-08 00:52:00,
2013-01-07 19:57:00,13.2,7.3,30.32,SSW,202,1.2,1.2,77,0.00,CLR,,0.00,WeatherDisplay:10.37,2013-01-08 00:57:00,
2013-01-07 20:02:00,12.7,6.8,27.28,South,180,3.5,3.5,77,0.00,CLR,,0.00,WeatherDisplay:10.37,2013-01-08 01:02:00,
2013-01-07 20:07:00,11.9,6.1,30.32,South,180,4.6,4.6,77,0.00,CLR,,0.00,WeatherDisplay:10.37,2013-01-08 01:07:00,
2013-01-07 20:12:00,11.5,5.7,30.32,SSW,202,5.9,5.9,77,0.00,CLR,,0.00,WeatherDisplay:10.37,2013-01-08 01:12:00,
2013-01-07 20:17:00,11.7,5.9,30.32,SW,225,5.8,5.8,77,0.00,CLR,,0.00,WeatherDisplay:10.37,2013-01-08 01:17:00,
2013-01-07 20:22:00,11.7,5.9,30.32,SW,225,6.9,6.9,77,0.00,CLR,,0.00,WeatherDisplay:10.37,2013-01-08 01:22:00,
2013-01-07 20:27:00,11.4,5.5,30.32,SSW,202,5.1,5.1,77,0.00,CLR,,0.00,WeatherDisplay:10.37,2013-01-08 01:27:00,
2013-01-07 20:32:00,11.5,5.7,30.32,South,180,4.6,4.6,77,0.00,CLR,,0.00,WeatherDisplay:10.37,2013-01-08 01:32:00,
2013-01-07 20:37:00,11.2,5.4,30.32,SSW,202,4.6,4.6,77,0.00,CLR,,0.00,WeatherDisplay:10.37,2013-01-08 01:37:00,
2013-01-07 20:42:00,11.0,5.2,30.32,SW,225,4.6,4.6,77,0.00,CLR,,0.00,WeatherDisplay:10.37,2013-01-08 01:42:00,
2013-01-07 20:47:00,10.8,5.0,30.32,SSW,202,4.6,4.6,77,0.00,CLR,,0.00,WeatherDisplay:10.37,2013-01-08 01:47:00,
2013-01-07 20:53:00,10.5,4.7,30.32,SW,225,4.6,4.6,77,0.00,CLR,,0.00,WeatherDisplay:10.37,2013-01-08 01:53:00,
2013-01-07 20:58:00,10.1,4.3,30.32,SW,225,4.6,4.6,77,0.00,CLR,,0.00,WeatherDisplay:10.37,2013-01-08 01:58:00,
2013-01-07 21:03:00,9.6,3.8,30.29,South,180,4.6,4.6,77,0.00,CLR,,0.00,WeatherDisplay:10.37,2013-01-08 02:03:00,
2013-01-07 21:08:00,9.4,3.6,30.29,SW,225,1.6,1.6,77,0.00,CLR,,0.00,WeatherDisplay:10.37,2013-01-08 02:08:00,
2013-01-07 21:13:00,8.8,5.7,30.29,SSW,202,3.5,3.5,87,0.00,CLR,,0.00,WeatherDisplay:10.37,2013-01-08 02:13:00,
2013-01-07 21:18:00,8.7,5.9,30.29,SSE,158,3.5,3.5,88,0.00,CLR,,0.00,WeatherDisplay:10.37,2013-01-08 02:18:00,
2013-01-07 21:23:00,8.4,5.6,30.29,South,180,3.5,3.5,88,0.00,CLR,,0.00,WeatherDisplay:10.37,2013-01-08 02:23:00,
2013-01-07 21:28:00,7.8,5.0,30.29,SSW,202,1.5,1.5,88,0.00,CLR,,0.00,WeatherDisplay:10.37,2013-01-08 02:28:00,
2013-01-07 21:33:00,7.9,5.1,30.29,SW,225,1.2,1.2,88,0.00,CLR,,0.00,WeatherDisplay:10.37,2013-01-08 02:33:00,
2013-01-07 21:38:00,8.0,5.2,30.29,SE,135,3.0,3.0,88,0.00,CLR,,0.00,WeatherDisplay:10.37,2013-01-08 02:38:00,
2013-01-07 21:43:00,8.5,5.7,30.29,SSW,202,4.6,4.6,88,0.00,CLR,,0.00,WeatherDisplay:10.37,2013-01-08 02:43:00,
2013-01-07 21:48:00,9.0,6.2,30.29,SE,135,5.8,5.8,88,0.00,CLR,,0.00,WeatherDisplay:10.37,2013-01-08 02:48:00,
2013-01-07 21:53:00,8.9,6.1,30.29,SSW,202,4.6,4.6,88,0.00,CLR,,0.00,WeatherDisplay:10.37,2013-01-08 02:53:00,
2013-01-07 21:58:00,9.1,6.2,30.29,West,270,4.6,4.6,88,0.00,CLR,,0.00,WeatherDisplay:10.37,2013-01-08 02:58:00,
2013-01-07 22:03:00,9.2,6.4,30.30,South,180,4.6,4.6,88,0.00,CLR,,0.00,WeatherDisplay:10.37,2013-01-08 03:03:00,
2013-01-07 22:08:00,9.7,6.9,30.30,South,180,4.6,4.6,88,0.00,CLR,,0.00,WeatherDisplay:10.37,2013-01-08 03:08:00,
2013-01-07 22:13:00,9.7,6.9,30.30,SW,225,6.9,6.9,88,0.00,CLR,,0.00,WeatherDisplay:10.37,2013-01-08 03:13:00,
2013-01-07 22:18:00,9.8,6.9,30.30,WSW,248,5.8,5.8,88,0.00,CLR,,0.00,WeatherDisplay:10.37,2013-01-08 03:18:00,
2013-01-07 22:23:00,10.0,7.1,30.30,SW,225,6.9,6.9,88,0.00,CLR,,0.00,WeatherDisplay:10.37,2013-01-08 03:23:00,
2013-01-07 22:28:00,10.2,7.4,30.30,SW,225,8.1,8.1,88,0.00,CLR,,0.00,WeatherDisplay:10.37,2013-01-08 03:28:00,
2013-01-07 22:33:00,10.1,7.3,30.30,SSW,202,4.6,4.6,88,0.00,CLR,,0.00,WeatherDisplay:10.37,2013-01-08 03:33:00,
2013-01-07 22:38:00,9.5,6.7,30.30,SSE,158,3.5,3.5,88,0.00,CLR,,0.00,WeatherDisplay:10.37,2013-01-08 03:38:00,
2013-01-07 22:43:00,9.2,6.4,30.30,SSW,202,4.6,4.6,88,0.00,CLR,,0.00,WeatherDisplay:10.37,2013-01-08 03:43:00,
2013-01-07 22:48:00,8.9,6.1,30.30,SW,225,1.5,1.5,88,0.00,CLR,,0.00,WeatherDisplay:10.37,2013-01-08 03:48:00,
2013-01-07 22:53:00,8.3,5.5,30.30,West,270,3.5,3.5,88,0.00,CLR,,0.00,WeatherDisplay:10.37,2013-01-08 03:53:00,
2013-01-07 22:58:00,7.8,4.9,30.30,South,180,3.5,3.5,88,0.00,CLR,,0.00,WeatherDisplay:10.37,2013-01-08 03:58:00,
2013-01-07 23:03:00,7.9,5.1,30.27,SW,225,3.5,3.5,88,0.00,CLR,,0.00,WeatherDisplay:10.37,2013-01-08 04:03:00,
2013-01-07 23:08:00,7.6,4.8,30.27,SE,135,3.5,3.5,88,0.00,CLR,,0.00,WeatherDisplay:10.37,2013-01-08 04:08:00,
2013-01-07 23:13:00,7.8,4.9,30.27,SE,135,1.2,0.0,88,0.00,CLR,,0.00,WeatherDisplay:10.37,2013-01-08 04:13:00,
2013-01-07 23:18:00,7.4,4.6,30.27,SSW,202,3.5,3.5,88,0.00,CLR,,0.00,WeatherDisplay:10.37,2013-01-08 04:18:00,
2013-01-07 23:23:00,7.6,4.8,30.27,ESE,112,4.6,4.6,88,0.00,CLR,,0.00,WeatherDisplay:10.37,2013-01-08 04:23:00,
2013-01-07 23:28:00,7.5,4.7,30.27,West,270,1.2,0.0,88,0.00,CLR,,0.00,WeatherDisplay:10.37,2013-01-08 04:28:00,
2013-01-07 23:33:00,7.0,4.2,30.27,West,270,1.2,0.0,88,0.00,CLR,,0.00,WeatherDisplay:10.37,2013-01-08 04:33:00,
2013-01-07 23:38:00,6.7,3.9,30.27,NE,45,4.6,4.6,88,0.00,CLR,,0.00,WeatherDisplay:10.37,2013-01-08 04:38:00,
2013-01-07 23:43:00,6.5,3.7,30.27,South,180,4.6,4.6,88,0.00,CLR,,0.00,WeatherDisplay:10.37,2013-01-08 04:43:00,
2013-01-07 23:48:00,6.9,4.1,30.27,South,180,4.6,4.6,88,0.00,CLR,,0.00,WeatherDisplay:10.37,2013-01-08 04:48:00,
2013-01-07 23:53:00,7.1,4.3,30.27,SSE,158,3.5,3.5,88,0.00,CLR,,0.00,WeatherDisplay:10.37,2013-01-08 04:53:00,
2013-01-07 23:58:00,6.7,3.9,30.27,WSW,248,3.5,3.5,88,0.00,CLR,,0.00,WeatherDisplay:10.37,2013-01-08 04:58:00,